Location: Unspecified
(0.0000°N, 0.0000°E)
Time: 23:56:51
(UTC+00:00)

Vanguard 2 Rocket - Visible Passes

Search period start: 18 July 2018 00:00
Search period end: 28 July 2018 00:00
Orbit: 554 x 3327 km, 32.9° (Epoch: 18 July)

Date Brightness Start Highest point End Pass type
(mag) Time Alt. Az. Time Alt. Az. Time Alt. Az.
21 Jul 10.5 05:19:42 10° N 05:23:25 12° NNE 05:27:39 10° NE visible
21 Jul 8.8 19:17:30 10° S 19:19:15 11° SSE 19:19:33 11° SSE visible
22 Jul 9.1 20:29:07 10° SW 20:29:48 12° SSW 20:29:48 12° SSW visible
23 Jul 10.5 05:31:53 10° N 05:38:50 17° NNE 05:47:50 10° ENE visible
23 Jul 8.2 19:29:12 10° SSW 19:34:15 21° SSE 19:34:15 21° SSE visible
24 Jul 8.6 18:28:58 10° SSW 18:34:15 17° SSE 18:38:13 10° SE visible
24 Jul 8.9 20:42:59 10° SW 20:44:37 17° SW 20:44:37 17° SW visible
25 Jul 7.3 19:42:30 10° SW 19:49:11 41° SSE 19:49:11 41° SSE visible
26 Jul 10.3 04:47:40 10° N 04:52:46 14° NE 04:59:09 10° ENE visible
26 Jul 8.2 18:41:49 10° SSW 18:49:34 29° SSE 18:53:47 14° ESE visible
26 Jul 8.9 20:57:36 10° WSW 20:59:40 19° WSW 20:59:40 19° WSW visible
27 Jul 6.5 19:56:30 10° SW 20:04:12 87° SE 20:04:19 86° E visible
